Previsão horária em Allauch

Hoje, 15 Junho, Terça-feira

Tempo Temperatura Precipitação Vento Pressão Humidade
00:00 +24°C° 0 mm 1 m/s 742 mmHg 63%
01:00 +24°C° 0 mm 1 m/s 742 mmHg 63%
02:00 +23°C° 0 mm 2 m/s 742 mmHg 64%
03:00 +23°C° 0 mm 2 m/s 742 mmHg 64%
04:00 +24°C° 0 mm 2 m/s 742 mmHg 63%
05:00 +24°C° 0 mm 2 m/s 743 mmHg 61%
06:00 +25°C° 0 mm 2 m/s 743 mmHg 60%
07:00 +27°C° 0 mm 2 m/s 743 mmHg 54%
08:00 +28°C° 0 mm 2 m/s 743 mmHg 49%
09:00 +30°C° 0 mm 2 m/s 744 mmHg 44%
10:00 +30°C° 0 mm 3 m/s 744 mmHg 42%
11:00 +31°C° 0 mm 3 m/s 744 mmHg 41%
12:00 +32°C° 0 mm 4 m/s 744 mmHg 39%
13:00 +32°C° 0 mm 4 m/s 743 mmHg 40%
14:00 +32°C° 0 mm 4 m/s 743 mmHg 41%
15:00 +32°C° 0 mm 4 m/s 743 mmHg 41%
16:00 +30°C° 0 mm 4 m/s 743 mmHg 46%
17:00 +29°C° 0 mm 4 m/s 742 mmHg 51%
18:00 +28°C° 0 mm 3 m/s 742 mmHg 55%
19:00 +27°C° 0 mm 3 m/s 743 mmHg 61%
20:00 +26°C° 0 mm 2 m/s 743 mmHg 66%
21:00 +24°C° 0 mm 2 m/s 743 mmHg 72%
22:00 +24°C° 0 mm 1 m/s 743 mmHg 73%
23:00 +24°C° 0 mm 1 m/s 743 mmHg 74%

Amanhã, 16 Junho, Quarta-feira

Tempo Temperatura Precipitação Vento Pressão Humidade
00:00 +23°C° 0 mm 1 m/s 743 mmHg 75%
01:00 +23°C° 0 mm 1 m/s 742 mmHg 75%
02:00 +23°C° 0 mm 1 m/s 742 mmHg 76%
03:00 +23°C° 0 mm 1 m/s 742 mmHg 76%
04:00 +24°C° 0 mm 1 m/s 742 mmHg 72%
05:00 +24°C° 0 mm 1 m/s 742 mmHg 68%
06:00 +25°C° 0 mm 1 m/s 742 mmHg 64%
07:00 +27°C° 0 mm 2 m/s 742 mmHg 59%
08:00 +28°C° 0 mm 2 m/s 742 mmHg 54%
09:00 +30°C° 0 mm 3 m/s 742 mmHg 49%
10:00 +30°C° 0 mm 3 m/s 742 mmHg 48%
11:00 +32°C° 0 mm 4 m/s 742 mmHg 46%
12:00 +32°C° 0 mm 4 m/s 742 mmHg 45%
13:00 +32°C° 0 mm 5 m/s 741 mmHg 46%
14:00 +30°C° 0 mm 5 m/s 741 mmHg 47%
15:00 +30°C° 0 mm 5 m/s 741 mmHg 48%
16:00 +29°C° 0 mm 5 m/s 741 mmHg 50%
17:00 +29°C° 0 mm 5 m/s 741 mmHg 52%
18:00 +28°C° 0 mm 5 m/s 741 mmHg 55%
19:00 +27°C° 0 mm 4 m/s 741 mmHg 59%
20:00 +26°C° 0 mm 4 m/s 741 mmHg 64%
21:00 +25°C° 0 mm 3 m/s 741 mmHg 68%
22:00 +24°C° 0 mm 3 m/s 741 mmHg 70%
23:00 +24°C° 0 mm 3 m/s 741 mmHg 71%

Depois de amanhã, 17 Junho, Quinta-feira

Tempo Temperatura Precipitação Vento Pressão Humidade
00:00 +24°C° 0 mm 3 m/s 741 mmHg 73%
01:00 +22°C° 0 mm 4 m/s 741 mmHg 74%
02:00 +22°C° 0 mm 4 m/s 741 mmHg 75%
03:00 +22°C° 0 mm 4 m/s 741 mmHg 76%
04:00 +22°C° 0 mm 4 m/s 741 mmHg 73%
05:00 +23°C° 0 mm 4 m/s 741 mmHg 69%
06:00 +25°C° 0 mm 4 m/s 741 mmHg 66%
07:00 +26°C° 0 mm 5 m/s 741 mmHg 59%
08:00 +28°C° 0 mm 7 m/s 741 mmHg 53%
09:00 +29°C° 0 mm 8 m/s 741 mmHg 46%
10:00 +31°C° 0 mm 8 m/s 741 mmHg 45%
11:00 +31°C° 0 mm 8 m/s 741 mmHg 43%
12:00 +31°C° 0 mm 8 m/s 740 mmHg 42%
13:00 +29°C° 0 mm 8 m/s 740 mmHg 44%
14:00 +29°C° 0 mm 8 m/s 740 mmHg 46%
15:00 +28°C° 0 mm 8 m/s 740 mmHg 48%
16:00 +28°C° 0 mm 8 m/s 740 mmHg 49%
17:00 +28°C° 0 mm 9 m/s 740 mmHg 49%
18:00 +28°C° 0 mm 9 m/s 740 mmHg 50%
19:00 +27°C° 0 mm 8 m/s 740 mmHg 54%
20:00 +26°C° 0 mm 8 m/s 741 mmHg 58%
21:00 +24°C° 0 mm 7 m/s 741 mmHg 62%
22:00 +23°C° 0 mm 6 m/s 741 mmHg 67%
23:00 +23°C° 0 mm 6 m/s 741 mmHg 72%

18 Junho, Sexta-feira

Tempo Temperatura Precipitação Vento Pressão Humidade
00:00 +22°C° 0 mm 5 m/s 742 mmHg 78%
01:00 +22°C° 0 mm 5 m/s 742 mmHg 79%
02:00 +22°C° 0 mm 5 m/s 742 mmHg 80%
03:00 +21°C° 0 mm 4 m/s 742 mmHg 81%
04:00 +22°C° 0 mm 4 m/s 742 mmHg 78%
05:00 +23°C° 0 mm 4 m/s 742 mmHg 75%
06:00 +23°C° 0 mm 4 m/s 742 mmHg 72%
07:00 +26°C° 0 mm 5 m/s 742 mmHg 65%
08:00 +28°C° 0 mm 5 m/s 743 mmHg 58%
09:00 +29°C° 0 mm 5 m/s 743 mmHg 52%
10:00 +30°C° 0 mm 5 m/s 743 mmHg 50%
11:00 +30°C° 0 mm 5 m/s 743 mmHg 49%
12:00 +32°C° 0 mm 6 m/s 743 mmHg 47%
13:00 +32°C° 0 mm 6 m/s 743 mmHg 49%
14:00 +30°C° 0 mm 5 m/s 743 mmHg 51%
15:00 +30°C° 0 mm 5 m/s 743 mmHg 52%
16:00 +29°C° 0 mm 5 m/s 743 mmHg 56%
17:00 +28°C° 0 mm 4 m/s 743 mmHg 60%
18:00 +27°C° 0 mm 3 m/s 743 mmHg 64%
19:00 +26°C° 0 mm 3 m/s 743 mmHg 69%
20:00 +25°C° 0 mm 3 m/s 743 mmHg 73%
21:00 +24°C° 0 mm 3 m/s 743 mmHg 78%
22:00 +24°C° 0 mm 3 m/s 743 mmHg 80%
23:00 +24°C° 0 mm 3 m/s 744 mmHg 82%

19 Junho, Sábado

Tempo Temperatura Precipitação Vento Pressão Humidade
00:00 +22°C° 0 mm 3 m/s 744 mmHg 84%
01:00 +22°C° 0 mm 3 m/s 744 mmHg 82%
02:00 +22°C° 0 mm 3 m/s 744 mmHg 81%
03:00 +22°C° 0 mm 3 m/s 744 mmHg 79%
04:00 +24°C° 0 mm 3 m/s 744 mmHg 74%
05:00 +25°C° 0 mm 3 m/s 744 mmHg 69%
06:00 +25°C° 0 mm 3 m/s 744 mmHg 64%
07:00 +27°C° 0 mm 4 m/s 744 mmHg 57%
08:00 +28°C° 0 mm 4 m/s 743 mmHg 50%
09:00 +30°C° 0 mm 4 m/s 743 mmHg 43%
10:00 +32°C° 0 mm 5 m/s 743 mmHg 40%
11:00 +34°C° 0 mm 5 m/s 742 mmHg 38%
12:00 +35°C° 0 mm 6 m/s 742 mmHg 35%
13:00 +36°C° 0 mm 6 m/s 742 mmHg 34%
14:00 +36°C° 0 mm 6 m/s 742 mmHg 33%
15:00 +36°C° 0 mm 6 m/s 741 mmHg 33%
16:00 +35°C° 0 mm 6 m/s 741 mmHg 35%
17:00 +34°C° 0 mm 5 m/s 741 mmHg 37%
18:00 +33°C° 0 mm 5 m/s 741 mmHg 39%
19:00 +32°C° 0 mm 4 m/s 741 mmHg 43%
20:00 +29°C° 0 mm 4 m/s 741 mmHg 48%
21:00 +27°C° 0 mm 3 m/s 742 mmHg 53%
22:00 +27°C° 0 mm 3 m/s 742 mmHg 54%
23:00 +26°C° 0 mm 3 m/s 742 mmHg 55%

20 Junho, Domingo

Tempo Temperatura Precipitação Vento Pressão Humidade
00:00 +26°C° 0 mm 2 m/s 743 mmHg 56%
01:00 +26°C° 0 mm 3 m/s 742 mmHg 54%
02:00 +27°C° 0 mm 3 m/s 742 mmHg 52%
03:00 +27°C° 0 mm 3 m/s 741 mmHg 50%
04:00 +27°C° 0 mm 3 m/s 741 mmHg 50%
05:00 +28°C° 0 mm 4 m/s 741 mmHg 50%
06:00 +28°C° 0 mm 4 m/s 741 mmHg 49%
07:00 +30°C° 0 mm 5 m/s 740 mmHg 45%
08:00 +32°C° 0 mm 6 m/s 740 mmHg 41%
09:00 +34°C° 0 mm 7 m/s 739 mmHg 37%
10:00 +34°C° 0 mm 7 m/s 740 mmHg 37%
11:00 +35°C° 0 mm 7 m/s 740 mmHg 37%
12:00 +35°C° 0 mm 7 m/s 740 mmHg 37%
13:00 +35°C° 0 mm 7 m/s 740 mmHg 36%
14:00 +35°C° 0 mm 8 m/s 740 mmHg 36%
15:00 +35°C° 0 mm 8 m/s 739 mmHg 35%
16:00 +34°C° 0 mm 8 m/s 739 mmHg 37%
17:00 +33°C° 0 mm 7 m/s 740 mmHg 39%
18:00 +32°C° 0 mm 7 m/s 740 mmHg 42%
19:00 +29°C° 0 mm 6 m/s 740 mmHg 49%
20:00 +28°C° 0 mm 4 m/s 740 mmHg 57%
21:00 +26°C° 0 mm 3 m/s 740 mmHg 64%
22:00 +26°C° 0.4 mm 3 m/s 740 mmHg 67%
23:00 +25°C° 0.4 mm 3 m/s 740 mmHg 69%
Mostrar mais